Biggs, California, United States (95917)
Lat: 39.41N, Lon: 121.71W
Wx Zone: CAZ016
Local Info
Past Weather Observations for Saturday, April 12, 2014

NOTE: This archive is for the closest National Weather Service station to Biggs. Information may differ from the station used for current weather conditions.

Time Weather Temperature Dewpoint Humidity Pressure Winds Precip Visibility
23:53
Clear
55°F / 13°C 50°F / 10°C 82% 29.95 in
(1014 mb)
SE 6.9 mph
(SE 11 kph)
- 10SM
22:53
Clear
57°F / 14°C 50°F / 10°C 77% 29.92 in
(1013 mb)
SSE 10.4 mph
(SSE 17 kph)
- 10SM
21:53
Clear
61°F / 16°C 52°F / 11°C 72% 29.89 in
(1012 mb)
SSE 12.7 mph
(SSE 20 kph)
- 10SM
20:53
Clear
64°F / 18°C 54°F / 12°C 68% 29.83 in
(1010 mb)
SSE 13.8 mph
(SSE 22 kph)
- 10SM
19:53
Clear
66°F / 19°C 54°F / 12°C 64% 29.83 in
(1010 mb)
SE 11.5 mph
(SE 19 kph)
- 10SM
18:53
Clear
70°F / 21°C 54°F / 12°C 57% 29.8 in
(1009 mb)
SE 9.2 mph
(SE 15 kph)
- 10SM
17:53
Clear
73°F / 23°C 54°F / 12°C 50% 29.77 in
(1008 mb)
SE 9.2 mph
(SE 15 kph)
- 10SM
16:53
Clear
75°F / 24°C 54°F / 12°C 47% 29.77 in
(1008 mb)
SE 11.5 mph
(SE 19 kph)
- 10SM
15:53
Clear
77°F / 25°C 54°F / 12°C 44% 29.77 in
(1008 mb)
SSE 12.7 mph
(SSE 20 kph)
- 10SM
14:53
Clear
77°F / 25°C 54°F / 12°C 44% 29.8 in
(1009 mb)
SSE 10.4 mph
(SSE 17 kph)
- 10SM
13:53
Clear
75°F / 24°C 52°F / 11°C 44% 29.83 in
(1010 mb)
SE 4.6 mph
(SE 7 kph)
- 10SM
12:53
Clear
73°F / 23°C 52°F / 11°C 47% 29.83 in
(1010 mb)
Variable 3.5 mph
(Variable 6 kph)
- 10SM
11:53
Clear
72°F / 22°C 48°F / 9°C 44% 29.86 in
(1011 mb)
Variable 3.5 mph
(Variable 6 kph)
- 10SM
10:53
Clear
68°F / 20°C 52°F / 11°C 56% 29.89 in
(1012 mb)
SW 3.5 mph
(SW 6 kph)
- 10SM
09:53
Clear
64°F / 18°C 52°F / 11°C 64% 29.89 in
(1012 mb)
Calm - 10SM
08:53
Clear
61°F / 16°C 50°F / 10°C 68% 29.89 in
(1012 mb)
W 4.6 mph
(W 7 kph)
- 10SM
07:53
Clear
57°F / 14°C 50°F / 10°C 77% 29.86 in
(1011 mb)
SSE 6.9 mph
(SSE 11 kph)
- 10SM
06:53
Clear
54°F / 12°C 48°F / 9°C 82% 29.89 in
(1012 mb)
Calm - 9SM
05:53
Clear
54°F / 12°C 48°F / 9°C 82% 29.86 in
(1011 mb)
SE 3.5 mph
(SE 6 kph)
- 8SM
04:53
Clear
54°F / 12°C 48°F / 9°C 82% 29.83 in
(1010 mb)
ESE 6.9 mph
(ESE 11 kph)
- 9SM
03:53
Clear
52°F / 11°C 48°F / 9°C 88% 29.83 in
(1010 mb)
SSE 5.8 mph
(SSE 9 kph)
- 7SM
02:53
Clear
55°F / 13°C 52°F / 11°C 88% 29.83 in
(1010 mb)
S 5.8 mph
(S 9 kph)
- 8SM
01:53
Clear
55°F / 13°C 48°F / 9°C 77% 29.83 in
(1010 mb)
S 8.1 mph
(S 13 kph)
- 10SM
00:53
Clear
61°F / 16°C 46°F / 8°C 59% 29.83 in
(1010 mb)
Calm - 10SM
Time Weather Temperature Dewpoint Humidity Pressure Winds Precip Visibility


Weather for websites

WeatherForYou.com, LLC is not responsible for any damages or problems caused by this service. Current weather conditions are obtained from the closest station including government and personal stations which may have varying degrees of accuracy. Weather forecasts are derived from the NOAA NDFD. Like all things, this site belongs to Jesus Christ... He just trusts me to maintain it. If you have any questions or comments email webmaster@weatherforyou.com

Copyright © 2014, WeatherForYou.com LLC. All rights reserved.